[[{"header":{"parameterUnit":"m.s-1","parameterCategory":1,"la1":30.2991,"la2":30.254,"lo1":-89.0895,"lo2":-89.0444,"dy":0.0017,"dx":0.0017,"nx":28,"ny":28,"refTime":"2024-12-17T09:00:00:Z","depth":0,"parameterNumber":2,"parameterNumberName":"U-component_of_WINDS"},"data":[0,0,0,0,0,0,0,0,0,0,0,0,0,0,0,0,0,0,0,0,0,0,0,0,0,0,0,0,0,0,0,0,0,0,0,0,0,0,0,0,0,0,0,0,0,0,0,0,0,0,0,0,0,0,0,0,0,0,-1.6012,-1.6012,0,-1.5981,-1.5981,-1.598,-1.5916,-1.5915,-1.5913,-1.5912,-1.5882,-1.5883,-1.5883,0,0,0,0,0,0,0,0,0,0,0,0,0,-1.6017,-1.6017,-1.6012,-1.6012,-1.6011,-1.5981,-1.5981,-1.598,-1.5916,-1.5915,-1.5913,-1.5911,-1.5882,-1.5882,-1.5883,0,0,0,0,0,0,0,0,0,0,0,0,0,-1.6003,-1.6017,-1.6012,-1.5975,-1.5972,-1.5981,-1.5981,-1.598,-1.5916,-1.5914,-1.5913,-1.5911,-1.5882,-1.5882,-1.5883,-1.5926,0,0,-1.5885,-1.5885,0,0,0,0,0,0,0,0,-1.6004,-1.6003,-1.5981,-1.5978,-1.5974,-1.595,-1.5971,-1.5962,-1.5917,-1.5938,-1.5912,-1.591,-1.5906,-1.5905,-1.5903,-1.5924,-1.5923,-1.5885,-1.5885,-1.5886,-1.5886,0,0,0,0,0,0,0,-1.6005,-1.6004,-1.6,-1.5981,-1.5977,-1.5961,-1.5957,-1.5969,-1.5933,-1.5936,-1.5931,-1.5928,-1.5904,-1.5903,-1.5902,-1.5923,-1.5885,-1.5886,-1.5886,-1.5886,-1.5977,-1.5979,0,0,0,0,0,0,-1.6011,-1.6005,-1.6001,-1.5999,-1.5985,-1.5963,-1.5958,-1.596,-1.5933,-1.5927,-1.593,-1.5925,-1.5903,-1.5902,-1.5901,-1.5949,-1.5886,-1.5886,-1.5887,-1.5975,-1.5977,-1.598,0,0,0,0,0,0,-1.6012,-1.6011,-1.6002,-1.6001,-1.5998,-1.5965,-1.5967,-1.596,-1.5959,-1.5929,-1.5922,-1.5935,-1.5901,-1.59,-1.592,-1.5947,-1.5886,-1.5887,-1.5972,-1.5976,-1.5978,-1.6046,0,0,0,0,0,0,-1.6012,-1.6012,-1.6028,-1.6002,-1.5999,-1.6021,-1.5969,-1.5961,-1.596,-1.5954,-1.5932,-1.5926,-1.59,-1.5919,-1.5921,-1.5947,-1.5888,-1.597,-1.5974,-1.5977,-1.6041,-1.6051,-1.6059,0,0,0,0,0,-1.6012,-1.6048,-1.6029,-1.6028,-1.6017,-1.6023,-1.6021,-1.5989,-1.5963,-1.5978,-1.5958,-1.5927,-1.5944,-1.5922,-1.5923,-1.595,-1.5968,-1.5973,-1.5977,-1.6037,-1.6049,-1.6059,0,0,0,0,0,0,-1.6079,-1.6044,-1.6022,-1.605,-1.604,-1.6012,-1.6031,-1.6003,-1.6001,-1.5995,-1.5956,-1.5952,-1.5977,-1.5965,-1.5941,-1.599,-1.5951,-1.5956,-1.5996,-1.6007,-1.6016,-1.6019,-1.5888,0,0,0,0,0,-1.6097,-1.6103,-1.6073,-1.6101,-1.6097,-1.6065,-1.6066,-1.6042,-1.603,-1.6026,-1.6007,-1.5997,-1.6,-1.6003,-1.6004,-1.6039,-1.6033,-1.6058,-1.6067,-1.6075,-1.608,-1.6097,-1.6108,-1.5995,-1.5995,-1.5994,0,0,-1.6134,-1.6116,-1.6122,-1.6114,-1.6103,-1.6111,-1.6061,-1.6073,-1.6078,-1.6027,-1.6045,-1.6031,-1.6017,-1.6045,-1.6056,-1.6036,-1.6109,-1.6081,-1.6087,-1.6087,-1.6103,-1.6114,-1.6123,-1.5998,-1.5997,-1.5997,0,0,-1.6205,-1.6192,-1.6214,-1.6204,-1.6188,-1.6167,-1.6172,-1.6148,-1.6137,-1.6154,-1.6115,-1.6122,-1.6128,-1.612,-1.6116,-1.6185,-1.6156,-1.6187,-1.6234,-1.6252,-1.6261,-1.6268,-1.6293,-1.6302,-1.6191,-1.6192,-1.6192,0,-1.6254,-1.6264,-1.6229,-1.6242,-1.624,-1.6193,-1.6215,-1.6207,-1.6193,-1.6193,-1.617,-1.6176,-1.6164,-1.6189,-1.6206,-1.6204,-1.6209,-1.6189,-1.6262,-1.6269,-1.6276,-1.6299,-1.6308,-1.6195,-1.6195,-1.6195,-1.6194,0,-1.6324,-1.6332,-1.6352,-1.6338,-1.6338,-1.6356,-1.6324,-1.6328,-1.6304,-1.6285,-1.6303,-1.6286,-1.6283,-1.6287,-1.6264,-1.6309,-1.6297,-1.6269,-1.6229,-1.6291,-1.6312,-1.6321,-1.6201,-1.6199,-1.6198,-1.6197,0,0,-1.6437,-1.6404,-1.6412,-1.6405,-1.6384,-1.6389,-1.6405,-1.6401,-1.6406,-1.6397,-1.641,-1.6416,-1.639,-1.6386,-1.6362,-1.6377,-1.6433,-1.6347,-1.6346,-1.6364,-1.6481,-1.6502,-1.6513,-1.6413,-1.6415,-1.6416,-1.6482,0,-1.6504,-1.6529,-1.6497,-1.6529,-1.6536,-1.6492,-1.6505,-1.6494,-1.6477,-1.6481,-1.6462,-1.6467,-1.6432,-1.6429,-1.6443,-1.6423,-1.6456,-1.6418,-1.6425,-1.6426,-1.643,-1.6524,-1.6546,-1.6609,-1.649,-1.6491,-1.6492,0,-1.6586,-1.6581,-1.6613,-1.6589,-1.6591,-1.6604,-1.6598,-1.6602,-1.6589,-1.6575,-1.6571,-1.6542,-1.6556,-1.6518,-1.6537,-1.6512,-1.6513,-1.6504,-1.6505,-1.6505,-1.6463,-1.6526,-1.6628,-1.6638,-1.6505,-1.6504,-1.6503,0,-1.6665,-1.6666,-1.6685,-1.6681,-1.6654,-1.6664,-1.6654,-1.6638,-1.6638,-1.6633,-1.6633,-1.663,-1.6628,-1.6627,-1.6598,-1.6573,-1.6621,-1.658,-1.661,-1.6611,-1.6622,-1.6622,-1.6726,-1.6623,-1.6623,-1.6623,-1.6623,0,-1.6743,-1.6764,-1.672,-1.6732,-1.6755,-1.6719,-1.6743,-1.6728,-1.6714,-1.6723,-1.6685,-1.6694,-1.6655,-1.666,-1.6638,-1.6657,-1.6657,-1.6646,-1.664,-1.665,-1.6651,-1.665,-1.6645,-1.6625,-1.6625,-1.6624,-1.6624,0,-1.6835,-1.6807,-1.6825,-1.6798,-1.6791,-1.681,-1.6787,-1.6797,-1.6777,-1.6788,-1.6789,-1.6758,-1.6762,-1.6733,-1.6731,-1.6716,-1.6746,-1.6732,-1.6751,-1.6746,-1.6778,-1.6776,-1.6886,-1.6898,-1.6787,-1.6788,-1.6789,0,-1.6887,-1.6902,-1.6877,-1.6879,-1.6871,-1.6876,-1.6875,-1.684,-1.6841,-1.6827,-1.6839,-1.684,-1.6838,-1.6846,-1.6824,-1.6823,-1.6809,-1.6847,-1.6808,-1.6817,-1.6809,-1.6809,-1.681,-1.6856,-1.6857,-1.6858,-1.6859,0,-1.6982,-1.6967,-1.6967,-1.6963,-1.6963,-1.6958,-1.695,-1.6955,-1.6917,-1.692,-1.6923,-1.6922,-1.692,-1.6921,-1.6916,-1.6905,-1.6876,-1.6872,-1.6878,-1.6888,-1.6898,-1.6893,-1.6773,-1.6869,-1.6868,-1.6867,-1.6867,-1.6866,-1.7055,-1.7067,-1.7051,-1.7052,-1.7043,-1.7037,-1.7045,-1.7026,-1.7027,-1.7023,-1.7002,-1.7009,-1.6995,-1.6985,-1.6977,-1.6982,-1.6963,-1.6973,-1.6976,-1.6979,-1.6985,-1.6898,-1.6981,-1.6981,-1.698,-1.698,-1.698,0,-1.7148,-1.7136,-1.7137,-1.7128,-1.7129,-1.7101,-1.7091,-1.7094,-1.7101,-1.709,-1.7089,-1.7093,-1.7094,-1.7072,-1.707,-1.7078,-1.7065,-1.7079,-1.7078,-1.7076,-1.7001,-1.6996,-1.709,-1.7089,-1.7089,-1.7089,-1.7089,-1.7089,-1.7197,-1.7215,-1.7198,-1.7211,-1.7198,-1.7204,-1.7201,-1.7195,-1.7186,-1.7192,-1.7192,-1.7177,-1.7162,-1.7159,-1.7158,-1.7152,-1.7153,-1.7172,-1.7161,-1.7092,-1.7081,-1.7071,-1.7065,-1.7172,-1.7172,-1.7234,-1.7235,-1.7235]},{"header":{"parameterUnit":"m.s-1","parameterCategory":1,"la1":30.2991,"la2":30.254,"lo1":-89.0895,"lo2":-89.0444,"dy":0.0017,"dx":0.0017,"nx":28,"ny":28,"refTime":"2024-12-17T09:00:00:Z","depth":0,"parameterNumber":3,"parameterNumberName":"V-component_of_WINDS"},"data":[0,0,0,0,0,0,0,0,0,0,0,0,0,0,0,0,0,0,0,0,0,0,0,0,0,0,0,0,0,0,0,0,0,0,0,0,0,0,0,0,0,0,0,0,0,0,0,0,0,0,0,0,0,0,0,0,0,0,-0.3614,-0.3614,0,-0.3665,-0.3666,-0.3667,-0.366,-0.3659,-0.3658,-0.3657,-0.3712,-0.3714,-0.3716,0,0,0,0,0,0,0,0,0,0,0,0,0,-0.3511,-0.3512,-0.3614,-0.3614,-0.3615,-0.3665,-0.3666,-0.3667,-0.366,-0.3659,-0.3658,-0.3657,-0.3711,-0.3714,-0.3716,0,0,0,0,0,0,0,0,0,0,0,0,0,-0.3558,-0.3513,-0.3614,-0.3618,-0.3619,-0.3665,-0.3666,-0.3667,-0.366,-0.3659,-0.3658,-0.3657,-0.371,-0.3713,-0.3717,-0.3763,0,0,-0.3727,-0.3728,0,0,0,0,0,0,0,0,-0.3555,-0.3562,-0.3616,-0.3618,-0.3619,-0.3655,-0.365,-0.3699,-0.3661,-0.3645,-0.3657,-0.3656,-0.3694,-0.3699,-0.3711,-0.3766,-0.3768,-0.3727,-0.3729,-0.3731,-0.3732,0,0,0,0,0,0,0,-0.3552,-0.356,-0.3634,-0.3617,-0.3619,-0.3617,-0.3623,-0.3659,-0.3676,-0.3646,-0.3645,-0.3652,-0.3694,-0.3708,-0.3712,-0.3769,-0.3727,-0.373,-0.3732,-0.3734,-0.3863,-0.3865,0,0,0,0,0,0,-0.3548,-0.3557,-0.3633,-0.3636,-0.3583,-0.362,-0.3626,-0.3645,-0.3675,-0.3679,-0.3653,-0.3651,-0.3703,-0.3708,-0.3714,-0.377,-0.3731,-0.3734,-0.3736,-0.3862,-0.3864,-0.3865,0,0,0,0,0,0,-0.3545,-0.3554,-0.363,-0.3596,-0.3606,-0.3623,-0.3644,-0.3646,-0.366,-0.368,-0.3684,-0.3663,-0.3702,-0.371,-0.3751,-0.3772,-0.3735,-0.3739,-0.386,-0.3863,-0.3864,-0.3882,0,0,0,0,0,0,-0.3542,-0.3554,-0.3571,-0.3597,-0.3608,-0.3666,-0.3645,-0.3648,-0.3665,-0.3664,-0.3691,-0.3695,-0.3702,-0.3746,-0.3754,-0.3776,-0.3741,-0.3858,-0.3861,-0.3864,-0.388,-0.3885,-0.3889,0,0,0,0,0,-0.3539,-0.3575,-0.3572,-0.3581,-0.363,-0.3667,-0.3673,-0.368,-0.3667,-0.3685,-0.3698,-0.3694,-0.3768,-0.375,-0.3759,-0.3783,-0.3857,-0.386,-0.3864,-0.3878,-0.3884,-0.3889,0,0,0,0,0,0,-0.3552,-0.3578,-0.3576,-0.3621,-0.3641,-0.3666,-0.3689,-0.3686,-0.3712,-0.3709,-0.3717,-0.3724,-0.3765,-0.3778,-0.3757,-0.3829,-0.3811,-0.3816,-0.3819,-0.3825,-0.3829,-0.3825,-0.3744,0,0,0,0,0,-0.356,-0.3587,-0.3609,-0.3647,-0.3657,-0.3671,-0.3688,-0.3691,-0.3713,-0.3722,-0.3738,-0.3761,-0.3789,-0.3808,-0.3835,-0.3882,-0.3888,-0.3902,-0.3907,-0.3911,-0.3915,-0.3941,-0.3947,-0.3876,-0.3876,-0.3876,0,0,-0.3577,-0.3594,-0.3611,-0.365,-0.3666,-0.3695,-0.3679,-0.371,-0.3731,-0.3727,-0.3767,-0.3779,-0.3805,-0.3849,-0.3869,-0.3861,-0.3936,-0.3915,-0.3917,-0.392,-0.3945,-0.3951,-0.3957,-0.3878,-0.3878,-0.3877,0,0,-0.3622,-0.3638,-0.3671,-0.3688,-0.3713,-0.3722,-0.373,-0.3755,-0.3763,-0.3803,-0.38,-0.3826,-0.3875,-0.3893,-0.3908,-0.396,-0.3957,-0.3969,-0.3993,-0.4018,-0.4023,-0.4028,-0.4047,-0.4053,-0.3973,-0.3973,-0.3973,0,-0.364,-0.3683,-0.3689,-0.372,-0.3737,-0.3734,-0.3767,-0.3783,-0.3817,-0.3828,-0.3818,-0.3879,-0.3896,-0.3944,-0.3957,-0.397,-0.3979,-0.3966,-0.4022,-0.4027,-0.4032,-0.4049,-0.4056,-0.3975,-0.3974,-0.3974,-0.3974,0,-0.3703,-0.3733,-0.3757,-0.3788,-0.3807,-0.384,-0.3851,-0.387,-0.3872,-0.3882,-0.3922,-0.3942,-0.3973,-0.3985,-0.3987,-0.4034,-0.4028,-0.402,-0.4002,-0.404,-0.4056,-0.4063,-0.3976,-0.3976,-0.3976,-0.3975,0,0,-0.3758,-0.3792,-0.3801,-0.3815,-0.3842,-0.3865,-0.3898,-0.3927,-0.3944,-0.3967,-0.3994,-0.4035,-0.4028,-0.4045,-0.4049,-0.4071,-0.4111,-0.4061,-0.4061,-0.4069,-0.4163,-0.4169,-0.4177,-0.4109,-0.411,-0.4111,-0.4161,0,-0.3806,-0.3863,-0.3869,-0.3919,-0.3947,-0.3944,-0.3972,-0.3992,-0.4002,-0.4027,-0.4039,-0.4068,-0.4056,-0.4067,-0.4088,-0.4101,-0.413,-0.4098,-0.4135,-0.4136,-0.4128,-0.4185,-0.4192,-0.4238,-0.4168,-0.4169,-0.417,0,-0.387,-0.3894,-0.3947,-0.397,-0.3982,-0.4007,-0.4034,-0.4058,-0.4081,-0.4087,-0.4106,-0.4108,-0.4141,-0.4122,-0.4169,-0.4147,-0.4162,-0.4171,-0.4173,-0.4177,-0.4155,-0.419,-0.4252,-0.4259,-0.418,-0.4179,-0.4178,0,-0.3904,-0.395,-0.3987,-0.3999,-0.4028,-0.4045,-0.4058,-0.4079,-0.4097,-0.4121,-0.4133,-0.4161,-0.4176,-0.4198,-0.4207,-0.4193,-0.4253,-0.4235,-0.4259,-0.4259,-0.4272,-0.4271,-0.4337,-0.4282,-0.4282,-0.4282,-0.4282,0,-0.3957,-0.3989,-0.4003,-0.4026,-0.4062,-0.4069,-0.4105,-0.4117,-0.4136,-0.4162,-0.4162,-0.4186,-0.4196,-0.4222,-0.4229,-0.4267,-0.4274,-0.428,-0.4281,-0.428,-0.4279,-0.429,-0.4287,-0.4284,-0.4284,-0.4283,-0.4283,0,-0.4002,-0.4012,-0.4053,-0.4076,-0.4082,-0.4108,-0.4128,-0.4151,-0.416,-0.4193,-0.4201,-0.4217,-0.4247,-0.4258,-0.4295,-0.43,-0.4343,-0.4342,-0.4335,-0.4336,-0.4359,-0.4357,-0.4435,-0.4445,-0.4383,-0.4384,-0.4384,0,-0.4034,-0.4059,-0.4085,-0.4101,-0.4115,-0.4142,-0.4159,-0.4167,-0.4186,-0.4213,-0.4233,-0.4263,-0.4287,-0.4336,-0.4351,-0.4379,-0.4379,-0.4404,-0.4383,-0.4381,-0.4379,-0.4378,-0.438,-0.4408,-0.4409,-0.4409,-0.441,0,-0.4091,-0.4095,-0.412,-0.4147,-0.4168,-0.419,-0.4211,-0.4225,-0.4236,-0.4257,-0.4288,-0.4307,-0.4344,-0.4374,-0.4403,-0.4417,-0.4415,-0.4416,-0.4423,-0.4422,-0.4417,-0.442,-0.4346,-0.4414,-0.4414,-0.4414,-0.4413,-0.4413,-0.4131,-0.4153,-0.4174,-0.4202,-0.4219,-0.4238,-0.426,-0.4273,-0.4298,-0.4329,-0.4332,-0.4365,-0.4388,-0.4426,-0.4441,-0.4468,-0.4461,-0.4471,-0.4474,-0.4476,-0.4478,-0.4413,-0.4473,-0.4473,-0.4473,-0.4473,-0.4473,0,-0.4188,-0.4201,-0.4227,-0.4256,-0.4278,-0.4274,-0.4297,-0.4316,-0.4345,-0.4366,-0.4389,-0.4425,-0.4454,-0.4471,-0.45,-0.4518,-0.4518,-0.4525,-0.4524,-0.4527,-0.4482,-0.4473,-0.4525,-0.4525,-0.4525,-0.4525,-0.4525,-0.4525,-0.422,-0.4257,-0.4263,-0.4308,-0.4321,-0.4353,-0.4366,-0.4385,-0.4401,-0.444,-0.4464,-0.4475,-0.4494,-0.4525,-0.4551,-0.4556,-0.4566,-0.4574,-0.4578,-0.4536,-0.453,-0.4525,-0.4517,-0.4577,-0.4577,-0.4621,-0.4621,-0.4621]}]]